Location: Gerlach
(40.6516°N, 119.3568°W)
Time: 15:52:08
(UTC-07:00)

A-11 Canister half - Pass Details

Date: 26 February 2024
Orbit: 1525 x 1683 km, 47.3° (Epoch: 21 April)

Event Time Altitude Azimuth Distance (km) Brightness Sun altitude
Exits shadow 02:43:58 21° 135° (SE) 2,907 10.4 -43.4°
Drops below altitude 10° 02:46:34 10° 132° (SE) 3,720 11.1 -43.0°
Sets 02:49:39 0° 131° (SE) 4,717 11.7 -42.5°
